Weather History for Napoli / Capodichino, Italy

Change the Weather History Date:

Monday, August 25, 2014

  Actual Average Record
Temperature  
Mean Temperature 74 °F -  
Max Temperature 82 °F 80 °F - ()
Min Temperature 66 °F 61 °F - ()
Cooling Degree Days 9    
Growing Degree Days 24 (Base 50)    
Moisture  
Dew Point 62 °F    
Average Humidity 64    
Maximum Humidity 78    
Minimum Humidity 40    
Precipitation  
Precipitation 0.00 in 0.10 in - ()
Sea Level Pressure  
Sea Level Pressure 30.02 in    
Wind  
Wind Speed 4 mph ()    
Max Wind Speed 12 mph    
Max Gust Speed -    
Visibility 7.5 miles    
Events      
T = Trace of Precipitation, MM = Missing Value Source: Averaged Metar Reports

Daily Weather History Graph

Daily Weather History Graph

Search for Another Location

Airport:

Trip Planner

Search our weather history database for the weather conditions in past years. The results will help you decide how hot, cold, wet, or windy it might be!

Date:

Astronomy

Aug. 25, 2014 Rise Set
Actual Time 6:22 AM CEST 7:46 PM CEST
Civil Twilight 5:53 AM CEST 8:15 PM CEST
Nautical Twilight 5:19 AM CEST 8:49 PM CEST
Astronomical Twilight 4:42 AM CEST 9:25 PM CEST
Moon 6:12 AM CEST (8/25) 7:27 PM CEST (8/25)
Length of Visible Light 14h 21m
Length of Day
13h 24m
Waning Crescent, 0% of the Moon is Illuminated
Aug 25
Waning Crescent
Aug 25
New
Sep 2
First Quarter
Sep 9
Full
Sep 16
Last Quarter

Hourly Weather History & Observations

Time (CEST) Temp. Heat Index Dew Point Humidity Pressure Visibility Wind Dir Wind Speed Gust Speed Precip Events Conditions
12:20 AM 71.6 °F - 60.8 °F 69% 30.01 in - Variable 1.2 mph - N/A   Clear
1:20 AM 69.8 °F - 60.8 °F 73% 30.01 in - NE 3.5 mph - N/A   Clear
1:50 AM 69.8 °F - 60.8 °F 73% 30.01 in - NNE 2.3 mph - N/A   Clear
2:00 AM 70 °F - 61 °F 65% 30.00 in 16 mi NNE 2.3 mph - -  
2:20 AM 69.8 °F - 60.8 °F 73% 30.01 in 6.2 mi NNE 3.5 mph - N/A   Scattered Clouds
2:50 AM 69.8 °F - 59.0 °F 68% 30.01 in 6.2 mi NE 3.5 mph - N/A   Scattered Clouds
3:20 AM 69.8 °F - 59.0 °F 68% 29.98 in 6.2 mi NNE 2.3 mph - N/A   Scattered Clouds
3:50 AM 69.8 °F - 59.0 °F 68% 29.98 in 6.2 mi North 2.3 mph - N/A   Scattered Clouds
4:20 AM 68.0 °F - 59.0 °F 73% 29.98 in 6.2 mi NE 3.5 mph - N/A   Scattered Clouds
4:50 AM 69.8 °F - 60.8 °F 73% 29.98 in 6.2 mi NNE 2.3 mph - N/A   Partly Cloudy
5:00 AM 68 °F - 60 °F 67% 29.99 in 16 mi NNE 2.3 mph - -  
5:20 AM 68.0 °F - 59.0 °F 73% 29.98 in 6.2 mi Variable 2.3 mph - N/A   Partly Cloudy
5:50 AM 68.0 °F - 59.0 °F 73% 29.98 in 6.2 mi Variable 2.3 mph - N/A   Partly Cloudy
6:20 AM 68.0 °F - 59.0 °F 73% 29.98 in 6.2 mi Variable 1.2 mph - N/A   Partly Cloudy
6:50 AM 66.2 °F - 59.0 °F 78% 30.01 in - North 3.5 mph - N/A   Clear
7:20 AM 68.0 °F - 60.8 °F 78% 30.01 in - North 4.6 mph - N/A   Clear
7:50 AM 69.8 °F - 60.8 °F 73% 30.01 in - North 4.6 mph - N/A   Clear
8:00 AM 70 °F - 60 °F 64% 30.01 in 16 mi North 4.6 mph - -  
8:20 AM 73.4 °F - 62.6 °F 69% 30.01 in - Variable 2.3 mph - N/A   Clear
8:50 AM 75.2 °F - 62.6 °F 65% 30.01 in - NNE 4.6 mph - N/A   Clear
9:20 AM 77.0 °F - 62.6 °F 61% 30.01 in 6.2 mi Variable 3.5 mph - N/A   Partly Cloudy
9:50 AM 78.8 °F - 62.6 °F 57% 30.04 in 6.2 mi Variable 4.6 mph - N/A   Partly Cloudy
10:20 AM 78.8 °F - 64.4 °F 61% 30.04 in 6.2 mi SSW 3.5 mph - N/A   Partly Cloudy
10:50 AM 78.8 °F - 64.4 °F 61% 30.04 in 6.2 mi South 5.8 mph - N/A   Scattered Clouds
11:00 AM 79 °F - 64 °F 50% 30.04 in 16 mi SSW 4.6 mph - -   Partly Cloudy
11:20 AM 80.6 °F 81.8 °F 62.6 °F 54% 30.04 in 6.2 mi Variable 5.8 mph - N/A   Scattered Clouds
11:50 AM 80.6 °F 82.3 °F 64.4 °F 58% 30.04 in 6.2 mi South 8.1 mph - N/A   Scattered Clouds
12:20 PM 80.6 °F 82.3 °F 64.4 °F 58% 30.04 in 6.2 mi SSW 8.1 mph - N/A   Mostly Cloudy
12:50 PM 80.6 °F 81.8 °F 62.6 °F 54% 30.04 in 6.2 mi South 9.2 mph - N/A   Mostly Cloudy
1:20 PM 80.6 °F 82.3 °F 64.4 °F 58% 30.04 in 6.2 mi SSW 9.2 mph - N/A   Mostly Cloudy
1:50 PM 80.6 °F 81.8 °F 62.6 °F 54% 30.04 in 6.2 mi South 9.2 mph - N/A   Scattered Clouds
2:00 PM 82 °F - 62 °F 40% 30.04 in 16 mi South 8.1 mph - -   Partly Cloudy
2:20 PM 80.6 °F 82.3 °F 64.4 °F 58% 30.04 in 6.2 mi SSW 8.1 mph - N/A   Scattered Clouds
2:50 PM 80.6 °F 82.3 °F 64.4 °F 58% 30.04 in 6.2 mi South 10.4 mph - N/A   Scattered Clouds
3:20 PM 80.6 °F 82.3 °F 64.4 °F 58% 30.04 in 6.2 mi South 11.5 mph - N/A   Scattered Clouds
3:50 PM 80.6 °F 82.7 °F 66.2 °F 61% 30.01 in 6.2 mi South 10.4 mph - N/A   Scattered Clouds
4:20 PM 80.6 °F 82.3 °F 64.4 °F 58% 30.01 in 6.2 mi SSW 9.2 mph - N/A   Scattered Clouds
4:50 PM 80.6 °F 82.3 °F 64.4 °F 58% 30.01 in 6.2 mi SSW 8.1 mph - N/A   Scattered Clouds
5:00 PM 80 °F - 64 °F 48% 30.01 in 16 mi SSW 6.9 mph - -   Partly Cloudy
5:20 PM 80.6 °F 81.8 °F 62.6 °F 54% 30.01 in 6.2 mi SW 5.8 mph - N/A   Scattered Clouds
5:50 PM - - - N/A% - 6.2 mi West 5.8 mph - N/A   Unknown
6:20 PM 80.6 °F 81.8 °F 62.6 °F 54% 30.01 in 6.2 mi West 8.1 mph - N/A   Partly Cloudy
6:50 PM 78.8 °F - 62.6 °F 57% 30.01 in 6.2 mi West 10.4 mph - N/A   Partly Cloudy
7:20 PM 77.0 °F - 62.6 °F 61% 30.01 in 6.2 mi WNW 8.1 mph - N/A   Scattered Clouds
7:50 PM 77.0 °F - 64.4 °F 65% 30.04 in 6.2 mi WNW 5.8 mph - N/A   Scattered Clouds
8:20 PM 77.0 °F - 64.4 °F 65% 30.04 in 6.2 mi WNW 6.9 mph - N/A   Scattered Clouds
8:50 PM 75.2 °F - 64.4 °F 69% 30.04 in 6.2 mi West 4.6 mph - N/A   Scattered Clouds
9:20 PM 75.2 °F - 64.4 °F 69% 30.04 in 6.2 mi WNW 4.6 mph - N/A   Partly Cloudy
9:50 PM 75.2 °F - 64.4 °F 69% 30.04 in 6.2 mi West 3.5 mph - N/A   Partly Cloudy
10:20 PM 75.2 °F - 64.4 °F 69% 30.06 in 6.2 mi Variable 2.3 mph - N/A   Partly Cloudy
10:50 PM 73.4 °F - 62.6 °F 69% 30.04 in 6.2 mi Calm Calm - N/A   Partly Cloudy
11:00 PM 74 °F - 64 °F 64% 30.05 in 6 mi SSE 1.2 mph - -   Scattered Clouds
11:20 PM 73.4 °F - 64.4 °F 73% 30.04 in - Variable 1.2 mph - N/A   Clear
11:50 PM 73.4 °F - 64.4 °F 73% 30.04 in - ESE 3.5 mph - N/A   Clear